Showing default

LEMUR 2 KADI, 43184

Orbit data source: Space-Track

LEMUR 2 KADI, 43184 is a payload satellite owned by Spire (US) in SSO that was launched on Thu, 01 Feb 2018 UTC via a SOYUZ-2-1A launch vehicle from the Vostochny Cosmodrome (VOSTO). Payload-class satellites include a variety of spacecraft equipped with specific instruments for various scientific and technological missions. These include communications satellites like Starlink; space stations such as the ISS; scientific satellites like the Hubble; Earth observation satellites from companies like Planet Labs, Umbra, and HawkEye 360; GPS; miniature CubeSats for education and research; and military/defense satellites.

Loading next visibility...
Identifier
43184, 2018-014E
Orbit
SSO
Country
Flag of USUS
Related business
Manufacturer
Spire/Glasgow
Mission
Operational Commercial Com/MetRO
Bus & Motor
CUBESAT 3U, Unknown motor
Mass
4.6 kg wet, 4.6 kg dry
Launch date (UTC)
2018-02-01 (8 years ago)
Launch vehicle
SOYUZ-2-1A
Launch site
Vostochny Cosmodrome (VOSTO)
Object type
Payload
Rocket body
Debris
Shape & HBR
Box + 2 Pan, 0.5 m
Radar Cross Section
0.124 m², Small (<0.1 m²)

Expand to show TLE details & history
Last TLE update: 6 hours ago

TLE from 6 hours ago
0 LEMUR 2 KADI
1 43184U 18014E   26104.27351934  .00100462  00000-0  73117-3 0  9996
2 43184  97.4594  31.2239 0007087 110.2889 249.9137 15.72995542450969
Epoch: 2026-04-14T06:33Z
TLE epoch observation values (Epoch: 2026-04-14T06:33:52.070Z)
Latitude
-0.00004°
Longitude
90.30482°
Altitude
355.142 km
Speed
7.695 km/s
True Right ascension
02h 04m 53s
True Declination
0° 00' 00"
Sunlit
Object was in daylight at epoch
Visualization orbit readout
Latitude
Unknown
Longitude
Unknown
Altitude
Unknown
Speed
Unknown
Apparent Right ascension
Unknown
Apparent Declination
Unknown
Sunlit
N/A
Visualization observer readout
Local Sidereal Time
18:50:24
Azimuth
Unknown
Elevation
Unknown
Doppler factor
Unknown
Orbital elements
Apogee altitude
352.005 km
Perigee altitude
342.473 km
Semi-major axis
6,725.376 km
Eccentricity
0.00071
Inclination
97.4594°
RAAN
31.2239°
Arg. of periapsis
110.2889°
True anomaly
249.83745°
Mean anomaly
249.9137°
Eccentric anomaly
249.87557°
Mean motion
3.93521 °/min
Orbital period
91.48 mins
BSTAR
0.00073117
Loading maneuver chart data...
Computing Atmospheric mass density...
Loading historical data...
Loading historical data...
Loading historical data...
Loading historical data...
Loading historical data...
Loading historical data...
Loading historical data...

Documentation

Showing up to 5 results
|